STARLINK-30106, 56288

Orbit data source: Space-Track

STARLINK-30106, 56288 is a payload satellite owned by SpaceX/Seattle (US) in LEO that was launched on Wed, 19 Apr 2023 UTC via an FALCON 9 launch vehicle from the Air Force Eastern Test Range (AFETR). Payload-class satellites include a variety of spacecraft equipped with specific instruments for various scientific and technological missions. These include communications satellites like Starlink; space stations such as the ISS; scientific satellites like the Hubble; Earth observation satellites from companies like Planet Labs, Umbra, and HawkEye 360; GPS; miniature CubeSats for education and research; and military/defense satellites.

Loading next visibility...
Identifier
56288, 2023-056C
Orbit
LEO
Last TLE update
21 hours ago
Origin
Manufacturer
SpaceX/Seattle
Mission
Operational Commercial Communications
Bus & Motor
STARLINK V2M, Unknown motor
Mass
730 kg wet, ~700 kg dry
Launch date (UTC)
2023-04-19 (2 years ago)
Launch vehicle
FALCON 9
Launch site
Air Force Eastern Test Range (AFETR)
Object type
Payload
Rocket body
Debris
Shape & HBR
Box + 2 Pan, 29 m
Radar Cross Section
33.884 m², Large (>1 m²)

Expand to show TLE details & history

TLE from 21 hours ago
0 STARLINK-30106
1 56288U 23056C   25130.19654466  .00000922  00000-0  83277-4 0  9991
2 56288  43.0032  59.1282 0001314 267.2888  92.7804 15.02538107114378
Epoch: 2025-05-10T04:43Z
Definitive object data (Epoch: 2025-05-10T04:43:01.458Z)
Latitude
-0.00002°
Longitude
120.1303°
Altitude
558.896 km
Speed
7.584 km/s
True Right ascension
03h 56m 30s
True Declination
0° 00' 00"
Sunlit
Object was in daylight at TLE epoch
Visualization TLE readout
Latitude
28.34057°
Longitude
-99.81487°
Altitude
560.059 km
Speed
7.585 km/s
Apparent Right ascension
16h 47m 36s
Apparent Declination
-10° 29' 00"
Sunlit
Object is in full shadow
Visualization observer readout
Local Sidereal Time
10:19:39
Azimuth
93.68° ESE
Elevation
-12.036°
Doppler factor
1
Orbital elements
Apogee altitude
561.908 km
Perigee altitude
560.085 km
Semi-major axis
6,939.133 km
Eccentricity
0.0001314
Inclination
43.0032°
RAAN
59.1282°
Arg. of periapsis
267.2888°
True anomaly
92.79544°
Mean anomaly
92.7804°
Eccentric anomaly
92.78792°
Mean motion
3.75479 °/min
BSTAR
0.000083277
Orbital period
95.88 mins
Loading maneuver chart data...
Loading SW <> Apogee altitude chart data...
Loading historical data...
Loading historical data...
Loading historical data...
Loading historical data...
Loading historical data...
Loading historical data...
Loading historical data...

STARLINK-30106 Visibility forecast

Observer location: undefined°, undefined°

Span
Click to sort rows by Start time (UTC) header in descending order
Start Az.
Max El. time (UTC)
Max El. Az.
Max El.
End time (UTC)
End Az.
8 mins2025-05-11 03:29:39.264Z285.705° WNW2025-05-11 03:33:39.264Z218.275° SW42.702°2025-05-11 03:37:39.264Z121.371° SE
4 mins2025-05-11 05:12:39.264Z240.973° WSW2025-05-11 05:13:39.264Z224.198° SW16.052°2025-05-11 05:16:39.264Z178.334° S
6 mins2025-05-11 22:25:39.264Z226.291° WSW2025-05-11 22:28:39.264Z138.917° SSE39.128°2025-05-11 22:31:39.264Z79.364° E
6 mins2025-05-12 00:06:39.264Z276.572° WNW2025-05-12 00:08:39.264Z317.665° NNW39.878°2025-05-12 00:12:39.264Z70.989° E
6 mins2025-05-12 01:47:39.264Z294.138° NW2025-05-12 01:49:39.264Z336.252° NNW40.496°2025-05-12 01:53:39.264Z90.227° ESE
|